Location: Waldport
(44.4270°N, 124.0680°W)
Time: 15:09:00
(UTC-08:00)

OTV 5 (USA 277) - Pass Details

Date: 29 October 2019
Orbit: 310 x 324 km, 54.5° (Epoch: 17 October)

Event Time Altitude Azimuth Distance (km) Brightness Sun altitude
Rises 19:22:28 0° 220° (SW) 2,047 ? -13.5°
Reaches altitude 10° 19:24:27 10° 215° (SW) 1,223 ? -13.8°
Maximum altitude 19:27:05 48° 138° (SE) 428 ? -14.3°
Enters shadow 19:27:41 39° 96° (E) 501 ? -14.4°
